Temperature
2 1 1 0 -0 -1 -2 -2 -3 -3 -3 -2 -2 -1 -1 -1 -1 -1 -1 -2 -2 -3 -3 -4 -4 -4 -4 -4 -4 -4 -4 -4 -4 -4 -4 -4 -4 -4
2 1 1 0 -0 -1 -2 -3 -3 -4 -4 -3 -3 -2 -2 -2 -2 -2 -2 -2 -3 -3 -4 -4 -4 -5 -5 -5 -4 -4 -4 -4 -4 -4 -4 -4 -4 -4
2 1 1 0 -1 -1 -2 -3 -4 -4 -5 -4 -4 -4 -3 -3 -3 -3 -3 -3 -3 -4 -4 -4 -5 -5 -5 -5 -5 -5 -5 -5 -5 -5 -5 -5 -5 -4
2 1 1 -0 -1 -1 -2 -3 -4 -4 -5 -5 -5 -5 -4 -4 -4 -4 -4 -4 -4 -4 -4 -5 -5 -5 -5 -5 -5 -5 -5 -5 -5 -5 -5 -5 -5 -5
1 1 0 -0 -1 -1 -2 -3 -4 -5 -5 -6 -6 -5 -5 -5 -5 -5 -5 -5 -5 -5 -5 -5 -5 -5 -6 -6 -6 -6 -6 -6 -6 -6 -6 -6 -6 -6
0 -0 -0 -1 -1 -1 -2 -3 -4 -5 -5 -6 -6 -6 -6 -6 -6 -6 -5 -5 -5 -5 -5 -5 -6 -6 -6 -6 -6 -6 -6 -6 -6 -6 -6 -6 -6 -6
-1 -1 -1 -1 -2 -3 -3 -4 -4 -5 -6 -6 -7 -7 -7 -6 -6 -6 -6 -6 -6 -6 -6 -6 -6 -6 -6 -6 -6 -6 -7 -7 -7 -7 -7 -7 -7 -7
-1 -1 -2 -2 -3 -4 -4 -5 -5 -6 -6 -6 -7 -7 -7 -6 -6 -7 -7 -7 -7 -6 -6 -6 -6 -6 -6 -6 -6 -7 -7 -7 -7 -7 -7 -7 -7 -7
-2 -2 -2 -3 -3 -4 -4 -4 -5 -5 -6 -6 -6 -6 -6 -6 -6 -7 -7 -7 -7 -7 -7 -7 -7 -7 -7 -7 -7 -7 -8 -8 -8 -8 -8 -7 -7 -7
-2 -3 -3 -3 -4 -4 -4 -5 -5 -5 -5 -5 -6 -6 -6 -6 -6 -7 -7 -7 -7 -7 -8 -8 -8 -7 -7 -7 -7 -8 -8 -8 -8 -8 -8 -8 -8 -8
-3 -3 -3 -4 -4 -5 -5 -5 -6 -5 -6 -6 -6 -6 -6 -6 -7 -7 -7 -8 -8 -8 -8 -8 -8 -8 -8 -8 -8 -8 -8 -8 -8 -8 -8 -8 -8 -8
-3 -4 -4 -4 -4 -5 -5 -6 -6 -6 -6 -6 -6 -6 -6 -6 -7 -7 -7 -8 -8 -8 -8 -8 -8 -9 -9 -9 -8 -8 -9 -9 -9 -9 -9 -9 -9 -9
-4 -4 -4 -5 -5 -5 -6 -6 -6 -6 -6 -6 -7 -7 -7 -7 -7 -7 -7 -8 -8 -8 -8 -8 -9 -9 -10 -10 -10 -9 -9 -9 -9 -9 -9 -9 -9 -9
-5 -5 -5 -5 -5 -5 -6 -6 -6 -6 -6 -7 -7 -7 -7 -7 -7 -7 -7 -8 -8 -8 -8 -9 -9 -10 -10 -10 -10 -10 -10 -10 -10 -10 -10 -10 -10 -9
-5 -5 -5 -5 -6 -6 -6 -6 -6 -6 -6 -7 -7 -7 -7 -7 -7 -8 -8 -8 -8 -8 -9 -9 -9 -10 -10 -11 -11 -11 -11 -11 -10 -10 -10 -10 -10 -10
-5 -5 -5 -6 -6 -6 -6 -6 -6 -6 -6 -7 -7 -7 -7 -7 -8 -8 -8 -9 -9 -9 -9 -9 -9 -10 -11 -11 -11 -11 -11 -11 -11 -11 -11 -11 -11 -10
-5 -5 -6 -6 -6 -6 -6 -6 -6 -7 -7 -7 -7 -7 -8 -8 -8 -8 -9 -9 -10 -10 -9 -9 -10 -10 -11 -11 -12 -12 -12 -12 -11 -11 -11 -11 -11 -10
-5 -6 -6 -6 -6 -6 -6 -7 -7 -7 -7 -7 -7 -8 -8 -8 -9 -9 -9 -10 -10 -10 -10 -10 -10 -11 -11 -11 -11 -12 -12 -12 -11 -12 -12 -12 -11 -10
-6 -6 -6 -6 -6 -6 -7 -7 -7 -7 -7 -8 -8 -8 -8 -9 -9 -10 -10 -10 -10 -11 -10 -11 -11 -12 -12 -12 -11 -11 -12 -12 -12 -12 -12 -12 -12 -10
-6 -6 -6 -6 -7 -7 -7 -7 -7 -7 -8 -8 -8 -8 -9 -9 -10 -10 -10 -11 -11 -11 -11 -11 -11 -12 -12 -12 -12 -12 -12 -12 -12 -12 -12 -12 -11 -10
-7 -7 -7 -7 -7 -7 -7 -7 -8 -8 -8 -8 -8 -9 -9 -9 -10 -10 -11 -11 -11 -11 -12 -11 -11 -11 -12 -12 -12 -12 -12 -11 -12 -12 -12 -12 -11 -11
-7 -7 -7 -7 -7 -7 -7 -8 -8 -8 -8 -8 -9 -9 -9 -10 -10 -10 -11 -11 -11 -11 -11 -11 -11 -12 -12 -12 -13 -12 -12 -11 -11 -11 -11 -11 -11 -11
-7 -7 -7 -7 -7 -7 -8 -8 -8 -8 -8 -9 -9 -9 -9 -10 -10 -11 -11 -11 -11 -12 -12 -12 -12 -12 -12 -12 -13 -12 -12 -11 -11 -11 -10 -10 -10 -10
Wind_Speed
20 21 20 16 14 13 12 11 12 13 14 9 8 8 13 16 23 21 21 26 28 28 28 28 28 29 29 29 29 29 29 29 29 30 30 31 31 32
17 19 20 16 14 13 14 12 14 15 15 6 9 7 9 13 21 21 21 26 28 28 29 29 29 29 29 30 30 30 30 30 31 31 31 31 32 32
19 20 22 18 16 14 13 13 14 14 19 11 7 8 10 11 11 14 18 18 19 28 29 29 30 30 30 30 30 31 31 31 31 32 32 32 33 33
21 20 21 17 19 15 14 15 15 15 16 18 9 8 11 11 10 10 11 16 16 25 29 29 29 30 30 30 31 31 31 32 32 32 32 33 33 34
20 21 21 19 19 16 16 16 15 15 15 16 14 10 9 8 9 10 11 9 14 21 26 28 29 29 30 30 31 31 31 31 32 32 33 33 34 34
18 19 19 19 20 18 17 18 15 15 14 14 14 10 10 7 8 10 11 10 12 13 18 22 25 28 29 30 30 30 31 32 32 33 33 33 34 34
16 17 18 22 26 21 17 14 14 14 14 14 14 12 11 8 9 9 12 10 10 11 10 12 12 12 15 25 28 30 31 32 33 33 34 34 34 34
15 14 16 21 26 31 32 29 23 18 16 15 14 14 13 13 10 10 10 10 10 7 10 12 10 11 11 12 24 30 31 32 33 33 33 33 34 34
13 12 13 14 21 16 23 30 29 32 29 19 17 17 14 13 12 13 13 12 13 7 7 11 9 12 10 16 27 29 31 32 32 33 33 33 34 34
12 13 13 13 14 15 14 15 16 17 20 19 16 16 15 12 13 14 14 13 11 9 9 11 10 11 11 10 24 29 30 31 31 32 32 33 33 34
11 12 13 13 21 24 16 15 15 15 22 26 24 22 25 25 19 12 12 11 12 10 9 8 8 9 10 10 15 26 28 29 30 31 31 32 32 32
8 10 17 17 20 23 15 13 15 13 12 13 16 19 17 19 25 15 11 11 8 7 7 7 7 6 7 8 9 10 14 22 27 29 30 31 31 20
7 7 9 19 21 22 20 14 18 14 10 12 11 10 10 9 10 11 11 10 10 8 6 6 6 7 9 8 7 8 10 10 12 17 24 29 30 24
8 7 9 18 20 21 18 18 22 19 9 10 11 11 10 10 9 10 11 11 11 11 8 8 7 8 10 12 11 6 7 9 11 13 12 21 24 28
7 12 14 17 17 14 17 19 16 11 9 10 10 10 9 8 7 6 7 8 9 9 9 9 10 9 10 13 13 10 9 9 11 12 11 12 13 13
7 10 13 14 12 12 11 10 8 7 8 9 8 7 6 7 7 7 7 7 7 8 9 11 11 12 12 13 13 13 11 9 8 10 12 13 13 13
6 4 4 4 6 6 6 6 6 6 7 6 7 6 7 7 7 7 6 6 7 8 7 7 8 9 12 12 13 14 13 13 12 12 12 14 13 13
8 4 5 6 7 7 7 7 7 7 7 7 7 7 8 8 7 6 6 7 9 9 8 7 6 6 8 10 16 15 13 13 12 12 12 14 15 12
7 5 6 6 7 6 6 7 7 7 7 7 7 8 7 7 7 7 8 8 9 9 9 7 7 9 12 14 9 15 13 12 12 12 12 13 15 13
4 5 5 6 6 6 7 7 6 6 6 7 7 7 8 7 8 8 8 9 9 9 9 8 9 10 13 13 11 9 16 13 12 13 12 12 13 17
4 5 5 5 6 6 6 6 7 7 7 7 7 8 8 8 8 8 9 13 12 10 11 10 11 15 11 9 11 11 10 17 18 14 12 12 12 12
5 5 5 5 6 6 6 6 6 7 7 7 7 7 7 8 9 10 9 9 9 10 11 10 8 8 9 11 14 13 12 11 15 23 24 21 13 10
4 4 4 5 5 5 5 6 7 7 7 7 7 7 7 7 8 8 9 9 9 10 10 9 8 8 10 11 12 12 14 13 10 10 12 20 26 29
Wind_Direction
233 232 233 234 229 227 223 218 231 253 255 219 217 216 220 224 231 234 232 240 248 253 255 257 260 262 264 266 268 270 272 273 275 276 277 277 278 279
232 232 233 234 231 227 226 224 224 237 255 222 213 203 208 224 231 230 228 239 247 253 256 258 260 262 263 266 267 269 270 271 273 274 275 276 277 278
234 233 234 229 230 227 224 224 226 227 246 247 213 209 207 222 234 230 230 237 245 252 257 259 260 262 264 265 267 268 270 271 273 274 275 276 277 277
236 234 234 230 228 226 224 225 226 224 234 248 232 217 219 221 224 227 234 238 238 249 254 257 259 262 263 264 265 267 268 270 272 273 275 276 277 277
236 233 233 227 229 226 223 225 226 227 228 240 242 229 227 222 222 234 238 238 243 249 254 257 259 260 262 264 265 267 268 270 271 273 274 274 275 276
238 234 232 227 227 224 225 225 224 225 226 232 239 234 230 216 215 233 243 237 242 246 250 253 256 259 262 264 265 267 269 270 271 272 272 273 273 274
242 237 233 231 230 229 228 223 220 224 225 230 236 234 230 220 223 222 237 242 242 239 244 248 252 254 258 262 264 268 270 270 271 271 271 271 271 272
243 239 236 239 240 239 237 232 222 220 222 225 229 231 229 224 222 223 230 239 249 223 230 244 239 248 248 246 257 263 267 269 270 271 271 271 271 271
238 236 236 235 237 234 240 242 238 231 225 220 227 228 226 220 218 225 229 233 241 227 218 250 244 249 249 253 261 264 266 268 269 269 270 271 271 270
237 232 231 231 228 227 226 231 235 238 236 231 226 226 225 220 216 223 230 237 245 241 225 251 250 251 254 249 260 264 267 268 269 269 271 272 271 271
239 231 230 228 234 236 230 228 232 234 241 242 238 232 230 230 223 222 225 233 246 240 216 232 250 256 258 256 256 262 265 267 269 271 272 273 273 272
245 235 240 236 237 239 231 224 229 229 225 236 244 248 241 238 239 229 221 231 244 244 212 215 238 244 265 248 242 248 259 265 268 271 273 273 273 273
251 240 236 245 243 241 237 227 232 226 215 221 227 232 235 234 233 228 217 221 235 241 210 202 229 237 254 268 254 248 248 254 263 268 271 272 271 269
252 242 236 244 247 246 243 235 235 235 220 217 223 226 227 228 226 221 219 220 226 233 221 211 234 244 257 268 273 255 243 250 256 262 261 267 270 269
253 249 246 246 246 248 247 242 237 230 220 217 220 223 220 218 211 214 223 227 233 236 233 226 235 244 248 261 269 270 272 264 253 255 258 260 262 265
272 262 258 251 241 236 243 247 233 224 220 220 219 217 208 207 214 216 224 225 239 250 238 231 232 236 250 255 262 268 265 264 257 255 260 263 261 257
249 237 235 236 229 221 221 225 223 224 228 214 212 210 210 214 220 211 215 220 235 251 254 245 236 238 243 251 260 262 265 265 262 262 263 265 261 256
259 237 236 231 228 224 221 219 217 217 218 215 214 214 215 216 221 218 219 225 240 247 250 248 250 263 263 253 243 256 259 262 262 259 257 263 266 260
259 238 232 228 224 220 220 219 219 216 210 214 219 216 214 216 221 226 227 233 242 247 248 243 241 250 265 273 249 238 249 259 261 260 256 256 263 266
247 239 235 229 224 222 221 222 220 214 211 215 217 215 213 217 224 229 231 235 243 250 252 245 239 243 253 267 274 260 251 252 258 261 260 259 261 265
248 240 235 231 226 223 222 220 217 216 213 213 216 217 215 217 228 232 235 245 249 251 253 253 249 256 261 266 269 266 254 254 254 257 258 262 266 265
246 242 237 232 227 222 220 217 217 218 215 217 220 220 219 221 230 234 237 243 246 248 255 261 257 258 255 259 266 272 274 268 262 261 257 252 253 253
248 244 243 238 229 220 216 217 218 222 220 219 221 222 221 226 231 234 239 243 248 253 258 263 263 257 256 257 264 270 272 274 271 265 261 256 253 255
Height
1416 1417 1417 1417 1419 1420 1422 1424 1427 1422 1418 1420 1424 1428 1432 1433 1435 1436 1436 1437 1438 1439 1439 1440 1440 1441 1441 1441 1441 1441 1441 1440 1440 1439 1438 1438 1437 1436
1404 1404 1403 1404 1406 1408 1410 1411 1412 1412 1408 1407 1412 1417 1420 1422 1424 1425 1425 1427 1428 1428 1429 1430 1430 1430 1431 1431 1431 1431 1431 1430 1430 1429 1428 1428 1427 1426
1392 1391 1390 1392 1393 1395 1397 1399 1400 1401 1397 1396 1402 1405 1408 1411 1414 1415 1415 1416 1417 1418 1419 1419 1420 1420 1420 1420 1421 1421 1420 1420 1420 1419 1418 1417 1416 1416
1378 1378 1377 1380 1380 1382 1384 1385 1387 1388 1388 1386 1389 1393 1396 1399 1402 1404 1405 1405 1406 1407 1408 1408 1409 1409 1409 1410 1410 1410 1410 1409 1409 1408 1407 1406 1405 1404
1365 1365 1365 1367 1367 1369 1371 1372 1374 1376 1377 1377 1377 1382 1384 1388 1390 1392 1393 1394 1394 1395 1396 1397 1398 1398 1398 1399 1399 1399 1399 1398 1398 1397 1396 1395 1394 1392
1352 1352 1352 1353 1354 1356 1358 1359 1362 1364 1366 1367 1367 1370 1373 1376 1378 1379 1381 1382 1383 1385 1385 1386 1386 1387 1387 1388 1388 1388 1387 1387 1386 1385 1384 1383 1382 1381
1340 1340 1340 1341 1342 1344 1346 1347 1350 1352 1354 1356 1357 1360 1362 1365 1366 1368 1370 1371 1371 1373 1373 1374 1375 1375 1375 1376 1376 1376 1375 1374 1373 1372 1371 1370 1369 1368
1328 1328 1328 1330 1331 1333 1335 1336 1338 1340 1342 1344 1346 1348 1350 1353 1357 1359 1360 1361 1360 1362 1363 1362 1364 1363 1363 1363 1363 1363 1362 1362 1361 1360 1359 1358 1357 1356
1318 1317 1317 1318 1320 1321 1323 1326 1328 1329 1331 1332 1334 1335 1340 1343 1347 1349 1350 1350 1350 1352 1353 1351 1352 1351 1352 1352 1352 1351 1351 1350 1349 1348 1347 1345 1344 1343
1308 1307 1307 1307 1309 1311 1312 1313 1315 1318 1322 1324 1323 1326 1330 1334 1336 1339 1340 1341 1341 1342 1343 1341 1340 1340 1340 1340 1340 1339 1339 1338 1337 1336 1334 1333 1331 1330
1299 1298 1298 1298 1299 1302 1302 1302 1304 1306 1311 1314 1316 1318 1321 1324 1327 1329 1330 1331 1330 1330 1332 1332 1330 1330 1328 1327 1327 1328 1327 1326 1325 1323 1322 1320 1319 1317
1290 1290 1290 1289 1290 1292 1293 1293 1294 1296 1301 1304 1307 1310 1312 1315 1318 1320 1320 1321 1321 1320 1322 1323 1321 1321 1316 1314 1315 1315 1314 1313 1312 1311 1309 1307 1306 1305
1282 1281 1281 1282 1282 1283 1285 1286 1286 1290 1292 1295 1297 1300 1303 1305 1307 1310 1311 1312 1312 1311 1312 1313 1312 1311 1309 1304 1303 1303 1302 1300 1299 1297 1295 1294 1293 1292
1275 1274 1274 1274 1275 1276 1277 1278 1281 1284 1285 1287 1289 1290 1293 1295 1297 1300 1301 1302 1302 1303 1304 1304 1303 1302 1299 1295 1291 1290 1290 1289 1287 1285 1282 1281 1279 1279
1269 1268 1268 1267 1268 1269 1270 1272 1275 1276 1278 1279 1280 1282 1284 1287 1289 1291 1292 1292 1293 1293 1293 1294 1293 1292 1290 1286 1282 1280 1278 1276 1276 1273 1271 1269 1266 1265
1263 1262 1262 1262 1262 1263 1264 1266 1267 1269 1270 1272 1273 1275 1277 1279 1280 1281 1282 1283 1282 1282 1283 1283 1283 1282 1279 1277 1274 1269 1268 1265 1263 1262 1260 1257 1255 1253
1257 1256 1255 1256 1256 1257 1258 1259 1261 1263 1264 1265 1267 1268 1269 1270 1271 1273 1273 1274 1273 1271 1271 1273 1273 1272 1269 1267 1263 1260 1257 1255 1253 1251 1249 1245 1242 1241
1252 1250 1249 1250 1250 1251 1252 1253 1254 1256 1257 1259 1260 1261 1261 1262 1263 1264 1265 1265 1264 1263 1262 1263 1263 1261 1258 1255 1254 1250 1247 1244 1242 1241 1239 1235 1230 1230
1246 1244 1244 1244 1244 1245 1246 1247 1248 1249 1250 1251 1252 1253 1254 1254 1255 1256 1256 1256 1255 1254 1253 1254 1253 1252 1248 1242 1240 1242 1238 1235 1233 1230 1228 1225 1220 1218
1240 1239 1239 1238 1239 1239 1240 1241 1241 1243 1243 1244 1245 1246 1246 1247 1247 1247 1247 1247 1246 1245 1244 1244 1244 1242 1239 1235 1230 1228 1229 1226 1223 1220 1217 1215 1211 1210
1234 1234 1233 1233 1233 1234 1234 1235 1235 1236 1236 1237 1238 1238 1239 1239 1239 1239 1239 1239 1238 1237 1235 1234 1233 1233 1231 1228 1222 1216 1216 1216 1214 1211 1208 1206 1203 1200
1229 1229 1228 1228 1228 1228 1229 1229 1229 1229 1230 1230 1231 1231 1231 1231 1231 1231 1231 1230 1229 1228 1227 1225 1225 1224 1222 1218 1212 1208 1205 1204 1203 1201 1199 1197 1195 1191
1225 1224 1224 1224 1223 1223 1223 1223 1223 1223 1223 1224 1224 1224 1224 1224 1224 1223 1223 1222 1221 1220 1219 1217 1215 1214 1211 1208 1204 1200 1197 1194 1192 1189 1187 1186 1185 1183